AKJ4MJ VAPO-VABB

Flight info

Callsign AKJ4MJ
Flight time 0h 16m
Altitude 12000
Route PPN W28 BBB
Aircraft B738/M-SDGIJ1LRWY/SB1

Departure

Time 2026-04-29 18:47
Airport Pune International Airport (VAPO)

Arrival

Time 2026-04-29 19:03
Airport Chhatrapati Shivaji Maharaj International Airport (VABB)
Time Latitude Longitude Altitude Speed Heading
2026-04-29 18:22 18.58010 73.90920 1950 ft 0 kts 187°
2026-04-29 18:38 18.58018 73.90922 1950 ft 0 kts 187°
2026-04-29 18:38 18.58032 73.90922 1950 ft 2 kts 167°
2026-04-29 18:38 18.58046 73.90916 1950 ft 2 kts 148°
2026-04-29 18:38 18.58058 73.90906 1950 ft 2 kts 127°
2026-04-29 18:39 18.58065 73.90892 1950 ft 2 kts 107°
2026-04-29 18:39 18.58067 73.90884 1950 ft 1 kts 95°
2026-04-29 18:39 18.58067 73.90881 1950 ft 0 kts 97°
2026-04-29 18:41 18.58063 73.90907 1950 ft 10 kts 99°
2026-04-29 18:42 18.58054 73.90981 1950 ft 9 kts 95°
2026-04-29 18:42 18.58093 73.91022 1950 ft 8 kts 20°
2026-04-29 18:42 18.58118 73.91068 1950 ft 7 kts 85°
2026-04-29 18:42 18.58117 73.91149 1950 ft 18 kts 94°
2026-04-29 18:43 18.58108 73.91285 1950 ft 18 kts 94°
2026-04-29 18:43 18.58107 73.91312 1950 ft 18 kts 94°
2026-04-29 18:44 18.58087 73.91617 1949 ft 34 kts 94°
2026-04-29 18:44 18.58067 73.91950 1949 ft 50 kts 93°
2026-04-29 18:44 18.58044 73.92313 1949 ft 48 kts 92°
2026-04-29 18:45 18.58022 73.92661 1949 ft 46 kts 94°
2026-04-29 18:45 18.58007 73.92993 1949 ft 36 kts 72°
2026-04-29 18:45 18.58129 73.93011 1949 ft 15 kts 347°
2026-04-29 18:45 18.58163 73.92918 1949 ft 14 kts 276°
2026-04-29 18:46 18.58173 73.92802 1949 ft 21 kts 275°
2026-04-29 18:46 18.58198 73.92422 1949 ft 90 kts 275°
2026-04-29 18:46 18.58254 73.91516 1950 ft 156 kts 273°
2026-04-29 18:46 18.58329 73.90241 2300 ft 182 kts 273°
2026-04-29 18:47 18.58441 73.88994 3361 ft 168 kts 281°
2026-04-29 18:47 18.58651 73.87794 3924 ft 176 kts 285°
2026-04-29 18:47 18.59320 73.86646 4297 ft 193 kts 318°
2026-04-29 18:47 18.60371 73.85721 4758 ft 205 kts 314°
2026-04-29 18:48 18.61241 73.84493 5173 ft 219 kts 298°
2026-04-29 18:48 18.61732 73.83498 5411 ft 234 kts 295°
2026-04-29 18:48 18.62682 73.81361 6127 ft 252 kts 294°
2026-04-29 18:48 18.63459 73.79629 6611 ft 267 kts 295°
2026-04-29 18:49 18.64282 73.77834 7220 ft 277 kts 294°
2026-04-29 18:49 18.65124 73.76014 7872 ft 283 kts 294°
2026-04-29 18:49 18.65996 73.74130 8561 ft 289 kts 294°
2026-04-29 18:49 18.66885 73.72208 9243 ft 295 kts 293°
2026-04-29 18:50 18.67775 73.70279 9972 ft 298 kts 294°
2026-04-29 18:50 18.68687 73.68303 10613 ft 306 kts 294°
2026-04-29 18:50 18.69639 73.66233 11042 ft 320 kts 294°
2026-04-29 18:50 18.70634 73.64072 11438 ft 335 kts 295°
2026-04-29 18:51 18.71674 73.61819 11809 ft 349 kts 295°
2026-04-29 18:51 18.72750 73.59484 11929 ft 357 kts 295°
2026-04-29 18:51 18.73471 73.57923 11936 ft 358 kts 295°
2026-04-29 18:51 18.74912 73.54800 11941 ft 345 kts 295°
2026-04-29 18:52 18.75599 73.53310 11929 ft 334 kts 295°
2026-04-29 18:52 18.76595 73.51148 11745 ft 323 kts 295°
2026-04-29 18:52 18.77895 73.48319 11264 ft 318 kts 295°
2026-04-29 18:52 18.78850 73.46236 10841 ft 317 kts 294°
2026-04-29 18:53 18.79483 73.44855 10572 ft 315 kts 294°
2026-04-29 18:53 18.80777 73.42097 10100 ft 309 kts 297°
2026-04-29 18:53 18.81521 73.40833 10018 ft 302 kts 303°
2026-04-29 18:53 18.83253 73.38563 9682 ft 295 kts 309°
2026-04-29 18:54 18.84636 73.36949 9275 ft 295 kts 310°
2026-04-29 18:54 18.86010 73.35345 8909 ft 293 kts 309°
2026-04-29 18:54 18.87357 73.33736 8535 ft 291 kts 308°
2026-04-29 18:54 18.88226 73.32681 8302 ft 290 kts 308°
2026-04-29 18:55 18.89979 73.30528 7809 ft 287 kts 308°
2026-04-29 18:55 18.91280 73.28921 7445 ft 285 kts 308°
2026-04-29 18:55 18.92558 73.27342 7089 ft 283 kts 309°
2026-04-29 18:55 18.93829 73.25773 6732 ft 280 kts 309°
2026-04-29 18:56 18.95083 73.24224 6379 ft 278 kts 309°
2026-04-29 18:56 18.96340 73.22673 6039 ft 275 kts 309°
2026-04-29 18:56 18.97167 73.21652 5808 ft 273 kts 309°
2026-04-29 18:56 18.98397 73.20132 5467 ft 270 kts 309°
2026-04-29 18:57 18.99622 73.18619 5128 ft 268 kts 310°
2026-04-29 18:57 19.00817 73.17142 4854 ft 263 kts 310°
2026-04-29 18:57 19.01976 73.15709 4755 ft 251 kts 310°
2026-04-29 18:57 19.03472 73.13859 4373 ft 248 kts 310°
2026-04-29 18:58 19.04221 73.12931 4115 ft 248 kts 310°
2026-04-29 18:58 19.05316 73.11576 3758 ft 241 kts 310°
2026-04-29 18:58 19.06749 73.09803 3283 ft 234 kts 310°
2026-04-29 18:58 19.07455 73.08929 3068 ft 231 kts 310°
2026-04-29 18:59 19.08753 73.07167 2899 ft 225 kts 297°
2026-04-29 18:59 19.09161 73.05565 2914 ft 229 kts 275°
2026-04-29 18:59 19.09169 73.04517 2902 ft 224 kts 269°
2026-04-29 18:59 19.09078 73.02921 2759 ft 216 kts 269°
2026-04-29 19:00 19.09040 73.01319 2487 ft 215 kts 271°
2026-04-29 19:00 19.09039 72.99754 2217 ft 213 kts 271°
2026-04-29 19:00 19.09023 72.98182 1930 ft 212 kts 270°
2026-04-29 19:00 19.08997 72.96669 1648 ft 199 kts 270°
2026-04-29 19:01 19.08980 72.95280 1392 ft 183 kts 270°
2026-04-29 19:01 19.08966 72.93990 1177 ft 171 kts 270°
2026-04-29 19:01 19.08949 72.92727 954 ft 170 kts 270°
2026-04-29 19:01 19.08937 72.91484 738 ft 171 kts 270°
2026-04-29 19:02 19.08915 72.90218 535 ft 170 kts 269°
2026-04-29 19:02 19.08901 72.89390 376 ft 171 kts 270°
2026-04-29 19:02 19.08886 72.88136 169 ft 168 kts 269°
2026-04-29 19:02 19.08867 72.86556 33 ft 143 kts 270°
2026-04-29 19:03 19.08856 72.85733 26 ft 82 kts 269°
2026-04-29 19:03 19.08896 72.85352 25 ft 27 kts 294°
2026-04-29 19:03 19.08943 72.85256 24 ft 0 kts 303°
2026-04-29 19:03 19.08943 72.85255 24 ft 0 kts 303°
2026-04-29 19:04 19.08981 72.85248 25 ft 16 kts
2026-04-29 19:04 19.09025 72.85395 28 ft 27 kts 94°